Location: Unspecified
(43.3830°N, 0.0000°E)
Time: 10:00:21
(UTC+00:00)

Explorer 7 - Pass Details

Date: 27 June 2019
Orbit: 485 x 680 km, 50.3° (Epoch: 18 July)

Event Time Altitude Azimuth Distance (km) Brightness Sun altitude
Rises 09:04:31 0° 277° (W) 2,756 10.0 48.3°
Reaches altitude 10° 09:06:52 10° 286° (WNW) 1,895 9.3 48.7°
Maximum altitude 09:10:52 35° 353° (N) 982 8.3 49.4°
Drops below altitude 10° 09:15:07 10° 60° (ENE) 2,011 10.2 50.2°
Sets 09:17:41 0° 69° (ENE) 2,952 11.0 50.6°
